Location: Newark
(48.3453°N, 0.5589°E)
Time: 05:14:22
(UTC+00:00)

A-11 Canister half - Pass Details

Date: 08 December 2019
Orbit: 1517 x 1683 km, 47.2° (Epoch: 22 January)

Event Time Altitude Azimuth Distance (km) Brightness Sun altitude
Rises 16:58:41 0° 282° (WNW) 4,855 12.6 -8.8°
Reaches altitude 10° 17:01:47 10° 281° (W) 3,887 12.0 -9.3°
Maximum altitude 17:11:44 73° 199° (SSW) 1,738 9.4 -10.8°
Drops below altitude 10° 17:21:51 10° 118° (ESE) 3,943 10.8 -12.4°
Sets 17:25:01 0° 116° (ESE) 4,928 11.2 -12.9°
